| time (UTC) | temp F | wind direction | speed MPH | gust MPH | rain 1hr in | rain 24hr in | rain mn in | humidity % | barometer mb |
| 20260503212007 | 65 | 284 | 10.0 | 24.0 | 0.00 | 0.00 | 0.00 | 28 | 1002.4 |
| 20260503210004 | 65 | 285 | 9.0 | 20.0 | 0.00 | 0.00 | 0.00 | 27 | 1002.4 |
| 20260503205003 | 65 | 277 | 14.0 | 21.0 | 0.00 | 0.00 | 0.00 | 28 | 1002.4 |
| 20260503204004 | 65 | 250 | 15.0 | 23.0 | 0.00 | 0.00 | 0.00 | 31 | 1003.0 |
| 20260503203004 | 66 | 294 | 12.0 | 20.0 | 0.00 | 0.00 | 0.00 | 30 | 1003.0 |
| 20260503202003 | 65 | 257 | 9.0 | 22.0 | 0.00 | 0.00 | 0.00 | 33 | 1003.0 |
| 20260503201004 | 65 | 265 | 21.0 | 26.0 | 0.00 | 0.00 | 0.00 | 34 | 1003.0 |
| 20260503200004 | 67 | 268 | 13.0 | 21.0 | 0.00 | 0.00 | 0.00 | 34 | 1003.0 |
| 20260503195004 | 66 | 291 | 13.0 | 24.0 | 0.00 | 0.00 | 0.00 | 32 | 1003.0 |
| 20260503194004 | 66 | 261 | 14.0 | 23.0 | 0.00 | 0.00 | 0.00 | 35 | 1003.0 |
| 20260503193004 | 65 | 278 | 12.0 | 24.0 | 0.00 | 0.00 | 0.00 | 36 | 1003.0 |
| 20260503191004 | 65 | 272 | 14.0 | 21.0 | 0.00 | 0.00 | 0.00 | 39 | 1003.0 |
| 20260503190004 | 64 | 293 | 10.0 | 20.0 | 0.00 | 0.00 | 0.00 | 36 | 1003.9 |
| 20260503185004 | 65 | 255 | 7.0 | 20.0 | 0.00 | 0.00 | 0.00 | 42 | 1003.9 |
| 20260503184004 | 65 | 307 | 10.0 | 23.0 | 0.00 | 0.00 | 0.00 | 37 | 1003.9 |
| 20260503183004 | 65 | 267 | 6.0 | 17.0 | 0.00 | 0.00 | 0.00 | 38 | 1003.9 |
| 20260503182005 | 64 | 269 | 12.0 | 18.0 | 0.00 | 0.00 | 0.00 | 40 | 1003.9 |
| 20260503180004 | 64 | 263 | 12.0 | 20.0 | 0.00 | 0.00 | 0.00 | 40 | 1003.9 |
| 20260503175004 | 63 | 276 | 14.0 | 22.0 | 0.00 | 0.00 | 0.00 | 43 | 1003.9 |
| 20260503174004 | 64 | 274 | 9.0 | 18.0 | 0.00 | 0.00 | 0.00 | 44 | 1003.9 |
| 20260503173004 | 63 | 303 | 13.0 | 20.0 | 0.00 | 0.00 | 0.00 | 43 | 1003.9 |
| 20260503172004 | 63 | 315 | 9.0 | 24.0 | 0.00 | 0.00 | 0.00 | 47 | 1003.9 |
| 20260503171004 | 63 | 293 | 9.0 | 20.0 | 0.00 | 0.00 | 0.00 | 44 | 1003.9 |
| 20260503151004 | 58 | 274 | 10.0 | 15.0 | 0.00 | 0.00 | 0.00 | 57 | 1004.4 |
| 20260503072004 | 48 | 201 | 5.0 | 7.0 | 0.00 | 0.00 | 0.00 | 80 | 1007.5 |
| 20260503071004 | 48 | 219 | 5.0 | 8.0 | 0.00 | 0.00 | 0.00 | 84 | 1007.5 |
| 20260503055004 | 52 | 251 | 6.0 | 12.0 | 0.00 | 0.00 | 0.00 | 69 | 1008.1 |
| 20260503054004 | 51 | 236 | 7.0 | 9.0 | 0.00 | 0.00 | 0.00 | 70 | 1008.1 |
| 20260503052004 | 53 | 249 | 6.0 | 9.0 | 0.00 | 0.00 | 0.00 | 67 | 1008.1 |
| 20260503051005 | 53 | 240 | 5.0 | 9.0 | 0.00 | 0.00 | 0.00 | 67 | 1008.1 |
| 20260503050004 | 54 | 231 | 7.0 | 12.0 | 0.00 | 0.00 | 0.00 | 64 | 1008.1 |
| 20260503044004 | 54 | 233 | 9.0 | 17.0 | 0.00 | 0.00 | 0.00 | 64 | 1008.1 |
| 20260503042004 | 53 | 215 | 9.0 | 13.0 | 0.00 | 0.00 | 0.00 | 60 | 1008.1 |
| 20260503041004 | 52 | 208 | 7.0 | 12.0 | 0.00 | 0.00 | 0.00 | 61 | 1008.1 |
| 20260503040004 | 50 | 218 | 7.0 | 16.0 | 0.00 | 0.00 | 0.00 | 62 | 1008.1 |
| 20260503034004 | 50 | 212 | 7.0 | 10.0 | 0.00 | 0.00 | 0.00 | 63 | 1009.0 |
| 20260503033004 | 50 | 227 | 7.0 | 10.0 | 0.00 | 0.00 | 0.00 | 60 | 1009.0 |
| 20260503032004 | 52 | 230 | 5.0 | 10.0 | 0.00 | 0.00 | 0.00 | 59 | 1009.0 |
| 20260503030004 | 51 | 188 | 5.0 | 7.0 | 0.00 | 0.00 | 0.00 | 54 | 1009.0 |
| 20260503025004 | 50 | 196 | 5.0 | 9.0 | 0.00 | 0.00 | 0.00 | 55 | 1009.0 |
| 20260503023004 | 51 | 175 | 5.0 | 7.0 | 0.00 | 0.00 | 0.00 | 53 | 1009.0 |
| 20260503022004 | 51 | 172 | 5.0 | 8.0 | 0.00 | 0.00 | 0.00 | 53 | 1009.0 |
| 20260503021004 | 51 | 181 | 5.0 | 7.0 | 0.00 | 0.00 | 0.00 | 52 | 1009.0 |
| 20260503020004 | 52 | 163 | 6.0 | 8.0 | 0.00 | 0.00 | 0.00 | 51 | 1009.1 |
| 20260503015004 | 52 | 177 | 5.0 | 8.0 | 0.00 | 0.00 | 0.00 | 50 | 1009.1 |
| 20260503013004 | 53 | 168 | 5.0 | 8.0 | 0.00 | 0.00 | 0.00 | 49 | 1009.1 |
| 20260503012004 | 54 | 183 | 5.0 | 8.0 | 0.00 | 0.00 | 0.00 | 49 | 1009.1 |
| 20260503005003 | 55 | 208 | 6.0 | 12.0 | 0.00 | 0.00 | 0.00 | 47 | 1009.3 |
| 20260503004003 | 56 | 224 | 6.0 | 12.0 | 0.00 | 0.00 | 0.00 | 46 | 1009.3 |
| 20260503003003 | 56 | 191 | 5.0 | 13.0 | 0.00 | 0.00 | 0.00 | 48 | 1009.8 |
| 20260503002003 | 56 | 205 | 4.0 | 13.0 | 0.00 | 0.00 | 0.00 | 50 | 1009.8 |
| 20260503001003 | 56 | 213 | 5.0 | 12.0 | 0.00 | 0.00 | 0.00 | 48 | 1009.8 |
| 20260503000003 | 57 | 237 | 5.0 | 10.0 | 0.00 | 0.00 | 0.00 | 50 | 1009.8 |
| 20260502235003 | 57 | 229 | 12.0 | 16.0 | 0.00 | 0.00 | 0.00 | 48 | 1010.7 |
| 20260502234003 | 57 | 242 | 10.0 | 18.0 | 0.00 | 0.00 | 0.00 | 47 | 1010.7 |
| 20260502233003 | 57 | 224 | 16.0 | 21.0 | 0.00 | 0.00 | 0.00 | 47 | 1010.7 |
| 20260502231003 | 58 | 214 | 11.0 | 18.0 | 0.00 | 0.00 | 0.00 | 46 | 1010.7 |
| 20260502230003 | 59 | 225 | 12.0 | 18.0 | 0.00 | 0.00 | 0.00 | 42 | 1010.7 |
| 20260502225003 | 58 | 227 | 10.0 | 20.0 | 0.00 | 0.00 | 0.00 | 45 | 1010.7 |
| 20260502224003 | 59 | 248 | 14.0 | 20.0 | 0.00 | 0.00 | 0.00 | 43 | 1010.7 |
| 20260502223003 | 59 | 223 | 12.0 | 18.0 | 0.00 | 0.00 | 0.00 | 37 | 1010.7 |
| 20260502222003 | 59 | 220 | 10.0 | 20.0 | 0.00 | 0.00 | 0.00 | 41 | 1010.7 |
| 20260502221006 | 59 | 199 | 7.0 | 16.0 | 0.00 | 0.00 | 0.00 | 38 | 1010.7 |
| 20260502220002 | 58 | 242 | 7.0 | 13.0 | 0.00 | 0.00 | 0.00 | 42 | 1010.7 |
| 20260502215003 | 58 | 267 | 7.0 | 12.0 | 0.00 | 0.00 | 0.00 | 43 | 1010.7 |
| 20260502214003 | 58 | 209 | 10.0 | 18.0 | 0.00 | 0.00 | 0.00 | 37 | 1011.4 |
| 20260502213003 | 58 | 229 | 10.0 | 14.0 | 0.00 | 0.00 | 0.00 | 39 | 1011.4 |